Regional Weather Roundup
Issued by NWS Glasgow, MT

Home | Current Version | Previous Version | Text Only | Print | Product List | Glossary On
Versions: 1 2 3 4 5 6 7 8 9 10 11 12 13 14 15 16 17 18 19 20 21 22 23 24 25 26 27 28 29 30 31 32 33 34 35 36 37 38 39 40 41 42 43 44 45 46 47 48 49 50
000
ASUS45 KGGW 240915
RWRGGW
HOURLY REGIONAL WEATHER ROUNDUP FOR NORTHEAST MONTANA
NATIONAL WEATHER SERVICE GLASGOW MONTANA
300 AM MDT THU AUG 24 2017

NOTE: "FAIR" INDICATES FEW OR NO CLOUDS BELOW 12,000 FEET WITH NO
SIGNIFICANT WEATHER AND/OR OBSTRUCTIONS TO VISISBILITY.

NORTHEAST MONTANA


CITY           SKY/WX    TMP DP  RH WIND       PRES   REMARKS
GLASGOW        CLEAR     65  49  56 E15       29.88S
PLENTYWOOD       N/A     56  52  86 E14         N/A
WOLF POINT     CLEAR     62  49  62 E10       29.92S
JORDAN           N/A     70  40  33 E3        29.87F
WINNETT          N/A     51  36  56 S2          N/A
SIDNEY         NOT AVBL
GLENDIVE       CLEAR     66  52  60 SW8       29.94S
MALTA            N/A     66  41  40 E3          N/A
SCOBEY           N/A     59  47  64 CALM      29.94S

FORT PECK REPORTS


CITY           SKY/WX    TMP DP  RH WIND       PRES   REMARKS
FORT PECK        N/A     66  49  54 NE15        N/A
THE PINES        N/A     70  48  45 NE3         N/A

SOUTHEAST MONTANA


CITY           SKY/WX    TMP DP  RH WIND       PRES   REMARKS
BILLINGS       CLOUDY    70  37  29 W6        29.91S
MILES CITY     CLEAR     71  49  45 SE10      29.90S
BAKER          CLEAR     65  55  70 SE13      29.98R
LIVINGSTON     CLOUDY    64  40  41 NW12      30.00R

CENTRAL MONTANA


CITY           SKY/WX    TMP DP  RH WIND       PRES   REMARKS
HAVRE          PTCLDY    62  39  42 CALM      29.83S
LEWISTOWN      CLOUDY    60  34  37 SE6       29.94F
GREAT FALLS    CLOUDY    71  35  26 VRB3      29.90F
CUT BANK       MOCLDY    72  36  26 W10       29.89F
HELENA         PTCLDY    69  41  36 CALM      29.93F
BUTTE          CLEAR     55  38  52 E3        30.08F
BOZEMAN        CLOUDY    60  44  55 S5        30.01F

WESTERN MONTANA


CITY           SKY/WX    TMP DP  RH WIND       PRES   REMARKS
MISSOULA       MOCLDY    66  46  48 CALM      29.92F HAZE
KALISPELL      NOT AVBL

NORTH DAKOTA


CITY           SKY/WX    TMP DP  RH WIND       PRES   REMARKS
WILLISTON      CLEAR     59  53  80 E9        29.96S
DICKINSON      CLEAR     61  58  90 S9        29.95S
MINOT          CLEAR     54  50  86 E9        30.01S
BISMARCK       CLEAR     58  56  93 E10       29.98S

SOUTHERN SASKATCHEWAN


CITY           SKY/WX    TMP DP  RH WIND       PRES   REMARKS
REGINA         MOCLDY    54  50  87 SE16G24   30.01R
ESTEVAN        PTCLDY    52  50  93 E14G22    30.01F
SWIFT CURRENT  CLEAR     63  48  59 SE15G21   29.87F




USA.gov is the U.S. government's official web portal to all federal, state and local government web resources and services.